Regional Weather Roundup
Issued by NWS

Home | Current Version | Previous Version | Graphics & Text | Print | Product List | Glossary Off
Versions: 1 2 3 4 5 6 7 8 9 10 11 12 13 14 15 16 17 18 19 20 21 22 23 24 25 26 27 28 29 30 31 32 33 34 35 36 37 38 39 40 41 42 43 44 45 46 47 48 49 50

000
ASUS43 KTOP 260259
RWRKS

WEATHER ROUNDUP FOR KANSAS
NATIONAL WEATHER SERVICE GOODLAND KS
1000 PM CDT WED MAY 25 2016

NOTE:  "FAIR" INDICATES FEW OR NO CLOUDS BELOW 12,000 FEET WITH NO
SIGNIFICANT WEATHER AND/OR OBSTRUCTIONS TO VISIBILITY.

KSZ001>006-013>018-027>032-041>047-260400-
NORTHWEST KANSAS

CITY           SKY/WX    TMP DP  RH WIND       PRES   REMARKS
GOODLAND       CLEAR     57  45  64 N13       29.92R
HAYS           CLEAR     61  61 100 NE6       29.84S
HILL CITY      CLEAR     65  61  87 NE9       29.85S
RUSSELL        CLEAR     69  67  93 NE7       29.82S
$$

KSZ061>065-074>080-084>089-260400-
SOUTHWEST KANSAS

CITY           SKY/WX    TMP DP  RH WIND       PRES   REMARKS
DODGE CITY     CLEAR     68  62  81 NE9       29.85S
ELKHART          N/A     67  40  37 S8          N/A
GARDEN CITY    CLEAR     68  61  78 E9        29.85R
GREAT BEND     CLEAR     70  63  78 N7        29.83R
LIBERAL        CLEAR     70  43  37 S8        29.86S
$$

KSZ066>073-081>083-090>101-260400-
SOUTHEAST KANSAS

CITY           SKY/WX    TMP DP  RH WIND       PRES   REMARKS
CHANUTE        CLOUDY    77  72  84 S7        29.86R
COFFEYVILLE    CLOUDY    79  72  79 S10       29.87S
HUTCHINSON     CLEAR     78  66  66 S9        29.81R
MEDICINE LODGE   N/A     79  57  46 SE9       29.81R
NEWTON         CLEAR     75  68  78 S10       29.84
PARSONS        CLOUDY    79  73  82 S10       29.87S
WICHITA INTL   CLOUDY    80  72  76 S14       29.81R
WICHITA JABRA  CLOUDY    79  72  79 S10       29.81R
WINFIELD       CLOUDY    79  73  82 S13G21    29.85R
$$

KSZ007>012-019>026-033>040-048>060-102>105-260400-
NORTHEAST KANSAS

CITY           SKY/WX    TMP DP  RH WIND       PRES   REMARKS
CONCORDIA      CLOUDY    71  69  93 NW7       29.82R
EMPORIA        CLEAR     76  72  87 S13       29.82R
LAWRENCE       CLOUDY    78  70  76 SE14      29.86R
MANHATTAN      TSTM      68  57  68 SE10G26   29.79F
OLATHE IND     MOCLDY    75  70  84 E6        29.89R
OLATHE EXE     CLOUDY    75  69  81 SE5       29.88R
SALINA         CLEAR     74  66  76 N5        29.80R
TOPEKA BILLARD CLOUDY    77  70  79 SE10      29.82S
TOPEKA FORBES  CLOUDY    76  71  85 SE8       29.83R
$$




USA.gov is the U.S. government's official web portal to all federal, state and local government web resources and services.